Location: Gilevgi
(36.8751°N, 30.0581°E)
Time: 04:26:35
(UTC+00:00)

USA 81 - Pass Details

Date: 11 December 2025
Orbit: 783 x 785 km, 85.0° (Epoch: 13 January)

Event Time Altitude Azimuth Distance (km) Brightness Sun altitude
Rises 15:49:24 0° 4° (N) 3,281 7.0 -12.9°
Reaches altitude 10° 15:51:54 10° 11° (NNE) 2,348 6.2 -13.3°
Maximum altitude 15:56:52 41° 82° (E) 1,124 4.4 -14.3°
Drops below altitude 10° 16:01:47 10° 152° (SSE) 2,332 6.4 -15.2°
Sets 16:04:15 0° 159° (SSE) 3,256 7.2 -15.7°
